Chicago, Illinois, United States (60601)
Lat: 41.85N, Lon: 87.65W
Wx Zone: ILZ014
Local Info
Past Weather Observations for Thursday, July 21, 2016

NOTE: This archive is for the closest National Weather Service station to Chicago. Information may differ from the station used for current weather conditions.

Click here for Long-term Archive

Time Weather Temperature Dewpoint Humidity Pressure Winds Precip Visibility
23:53
Overcast
Light Rain
75°F / 24°C 70°F / 21°C 83% 29.98 in
(1015 mb)
S 8.1 mph
(S 13 kph)
0.01 in
(0.25 mm)
10SM
22:53
Overcast
Light Rain
75°F / 24°C 72°F / 22°C 89% 30.01 in
(1016 mb)
SE 11.5 mph
(SE 19 kph)
0.10 in
(2.54 mm)
8SM
21:53
Overcast
Thunder Storms
75°F / 24°C 73°F / 23°C 94% 30.06 in
(1018 mb)
NNE 5.8 mph
(NNE 9 kph)
0.11 in
(2.79 mm)
6SM
21:04
Overcast
Thunder Storms
75°F / 24°C 72°F / 22°C 89% 30.06 in
(1018 mb)
N 10.4 mph
(N 17 kph)
0.05 in
(1.27 mm)
6SM
20:53
Overcast
Thunder Storms
75°F / 24°C 72°F / 22°C 89% 30.06 in
(1018 mb)
NNW 12.7 mph
(NNW 20 kph)
0.48 in
(12.19 mm)
3SM
20:42
Overcast
Thunder Storms
75°F / 24°C 72°F / 22°C 89% 30.04 in
(1017 mb)
NNW 23 mph
(NNW 37 kph)
0.42 in
(10.67 mm)
1SM
20:37
Overcast
Thunder Storms
75°F / 24°C 72°F / 22°C 89% 30.04 in
(1017 mb)
NNW 24.2 mph
(NNW 39 kph)
0.34 in
(8.64 mm)
3/4SM
20:30
Overcast
Thunder Storms
77°F / 25°C 72°F / 22°C 83% 30.04 in
(1017 mb)
NW 21.9 mph
(NW 35 kph)
0.04 in
(1.02 mm)
1 1/2SM
20:14
Overcast
Thunder Storms
81°F / 27°C 68°F / 20°C 66% 30.01 in
(1016 mb)
N 16.1 mph
(N 26 kph)
- 10SM
19:58
Overcast
Thunder Storms
88°F / 31°C 79°F / 26°C 75% 29.98 in
(1015 mb)
SW 10.4 mph
(SW 17 kph)
- 10SM
19:53
Mostly Cloudy
88°F / 31°C 79°F / 26°C 75% 29.98 in
(1015 mb)
SSE 13.8 mph
(SSE 22 kph)
- 10SM
18:53
Mostly Cloudy
90°F / 32°C 77°F / 25°C 67% 29.98 in
(1015 mb)
SW 12.7 mph
(SW 20 kph)
- 10SM
17:53
Mostly Cloudy
90°F / 32°C 79°F / 26°C 71% 29.98 in
(1015 mb)
S 9.2 mph
(S 15 kph)
- 10SM
16:53
Mostly Cloudy
90°F / 32°C 77°F / 25°C 67% 29.98 in
(1015 mb)
S 11.5 mph
(S 19 kph)
- 10SM
15:53
Mostly Cloudy
88°F / 31°C 73°F / 23°C 62% 29.98 in
(1015 mb)
SSE 15 mph
(SSE 24 kph)
- 10SM
14:53
Mostly Cloudy
84°F / 29°C 72°F / 22°C 66% 30.01 in
(1016 mb)
SE 11.5 mph
(SE 19 kph)
- 10SM
13:53
Mostly Cloudy
79°F / 26°C 72°F / 22°C 79% 30.04 in
(1017 mb)
SE 11.5 mph
(SE 19 kph)
0.03 in
(0.76 mm)
10SM
12:53
Overcast
79°F / 26°C 70°F / 21°C 74% 30.04 in
(1017 mb)
E 13.8 mph
(E 22 kph)
- 9SM
12:43
Overcast
81°F / 27°C 68°F / 20°C 66% 30.06 in
(1018 mb)
E 11.5 mph
(E 19 kph)
- 10SM
11:53
Overcast
90°F / 32°C 77°F / 25°C 67% 30.06 in
(1018 mb)
SSW 6.9 mph
(SSW 11 kph)
- 9SM
11:25
Overcast
90°F / 32°C 75°F / 24°C 63% 30.06 in
(1018 mb)
SSW 8.1 mph
(SSW 13 kph)
- 7SM
11:11
Overcast
90°F / 32°C 77°F / 25°C 67% 30.09 in
(1019 mb)
SW 9.2 mph
(SW 15 kph)
- 9SM
10:53
Overcast
90°F / 32°C 75°F / 24°C 63% 30.09 in
(1019 mb)
SW 10.4 mph
(SW 17 kph)
- 10SM
09:53
Mostly Cloudy
88°F / 31°C 75°F / 24°C 66% 30.09 in
(1019 mb)
SW 9.2 mph
(SW 15 kph)
- 10SM
08:53
Mostly Cloudy
86°F / 30°C 75°F / 24°C 70% 30.06 in
(1018 mb)
SW 12.7 mph
(SW 20 kph)
- 10SM
07:53
Partly Cloudy
82°F / 28°C 73°F / 23°C 74% 30.09 in
(1019 mb)
SW 12.7 mph
(SW 20 kph)
- 10SM
06:53
Partly Cloudy
81°F / 27°C 73°F / 23°C 79% 30.09 in
(1019 mb)
SW 10.4 mph
(SW 17 kph)
- 10SM
05:53
Partly Cloudy
79°F / 26°C 73°F / 23°C 84% 30.09 in
(1019 mb)
S 5.8 mph
(S 9 kph)
- 10SM
04:53
Partly Cloudy
75°F / 24°C 72°F / 22°C 89% 30.09 in
(1019 mb)
S 6.9 mph
(S 11 kph)
- 9SM
03:53
Clear
77°F / 25°C 72°F / 22°C 83% 30.09 in
(1019 mb)
S 6.9 mph
(S 11 kph)
- 10SM
02:53
Clear
77°F / 25°C 72°F / 22°C 83% 30.09 in
(1019 mb)
S 4.6 mph
(S 7 kph)
- 10SM
01:53
Clear
79°F / 26°C 72°F / 22°C 79% 30.09 in
(1019 mb)
S 5.8 mph
(S 9 kph)
- 10SM
00:53
Clear
79°F / 26°C 72°F / 22°C 79% 30.09 in
(1019 mb)
S 8.1 mph
(S 13 kph)
- 10SM
Time Weather Temperature Dewpoint Humidity Pressure Winds Precip Visibility


Weather for websites

WeatherForYou.com, LLC is not responsible for any damages or problems caused by this service. Current weather conditions are obtained from the closest station including government and personal stations which may have varying degrees of accuracy. Weather forecasts are derived from the NOAA NDFD. Like all things, this site belongs to Jesus Christ... He just trusts us to maintain it. If you have any questions or comments email webmaster@weatherforyou.com

Copyright © 2016, WeatherForYou.com LLC. All rights reserved.